Newport, RI

2:30 AM EDT on May 26, 2017 (GMT -0400)
Newport State

Weather History for KUUU - April, 2012

Change the Weather History Date:

Monday, April 16, 2012

  Actual Average Record
Temperature  
Mean Temperature 60 °F -  
Max Temperature 69 °F 54 °F 73 °F (2003)
Min Temperature 51 °F 39 °F 27 °F (1988)
Degree Days  
Heating Degree Days 6    
Growing Degree Days 10 (Base 50)    
Moisture  
Dew Point 52 °F    
Average Humidity 80    
Maximum Humidity 97    
Minimum Humidity 63    
Precipitation  
Precipitation 0.00 in - - ()
Sea Level Pressure  
Sea Level Pressure 30.00 in    
Wind  
Wind Speed 5 mph (South)    
Max Wind Speed 12 mph    
Max Gust Speed -    
Visibility 8 miles    
Events      
Averages and records for this station are not official NWS values.
T = Trace of Precipitation, MM = Missing Value Source: NWS Daily Summary

Daily Weather History Graph

Daily Weather History Graph

Search for Another Location

Airport or City:

Trip Planner

Search our weather history database for the weather conditions in past years. The results will help you decide how hot, cold, wet, or windy it might be!

Date:

Astronomy

Apr. 16, 2012 Rise Set
Actual Time 6:03 AM EDT 7:27 PM EDT
Civil Twilight 5:34 AM EDT 7:56 PM EDT
Nautical Twilight 4:59 AM EDT 8:31 PM EDT
Astronomical Twilight 4:22 AM EDT 9:07 PM EDT
Moon 3:33 AM EDT (4/16) 3:16 PM EDT (4/16)
Length of Visible Light 14h 21m
Length of Day
13h 24m
Waning Crescent, 19% of the Moon is Illuminated
Apr 16
Waning Crescent
Apr 21
New
Apr 29
First Quarter
May 5
Full
May 12
Last Quarter

Hourly Weather History & Observations

Time (EDT) Temp. Dew Point Humidity Pressure Visibility Wind Dir Wind Speed Gust Speed Precip Events Conditions
12:53 AM 57.9 °F 53.1 °F 84% 30.00 in 10.0 mi Calm Calm - N/A   Partly Cloudy
1:53 AM 57.0 °F 52.0 °F 83% 30.01 in 10.0 mi Calm Calm - N/A   Mostly Cloudy
2:53 AM 57.9 °F 52.0 °F 81% 30.00 in 10.0 mi Calm Calm - N/A   Overcast
4:53 AM 55.0 °F 50.0 °F 83% 30.00 in 9.0 mi SSE 3.5 mph - N/A   Scattered Clouds
5:53 AM 53.1 °F 48.9 °F 86% 30.01 in 8.0 mi South 3.5 mph - N/A   Clear
6:53 AM 54.0 °F 50.0 °F 86% 30.04 in 7.0 mi South 4.6 mph - N/A   Clear
7:11 AM 53.6 °F 50.0 °F 88% 30.04 in 7.0 mi SSE 3.5 mph - N/A   Partly Cloudy
7:53 AM 59.0 °F 51.1 °F 75% 30.03 in 9.0 mi South 6.9 mph - N/A   Clear
8:53 AM 60.1 °F 51.1 °F 72% 30.04 in 10.0 mi South 6.9 mph - N/A   Clear
9:53 AM 66.9 °F 54.0 °F 63% 30.03 in 10.0 mi South 9.2 mph - N/A   Clear
10:53 AM 64.0 °F 53.1 °F 67% 30.04 in 10.0 mi South 8.1 mph - N/A   Clear
11:53 AM 64.9 °F 54.0 °F 68% 30.04 in 10.0 mi South 11.5 mph - N/A   Clear
12:53 PM 68.0 °F 55.0 °F 63% 30.02 in 10.0 mi South 6.9 mph - N/A   Clear
1:53 PM 66.9 °F 54.0 °F 63% 30.01 in 10.0 mi South 10.4 mph - N/A   Clear
2:53 PM 61.0 °F 52.0 °F 72% 30.00 in 9.0 mi South 11.5 mph - N/A   Scattered Clouds
3:53 PM 66.0 °F 54.0 °F 65% 29.99 in 10.0 mi South 10.4 mph - N/A   Clear
4:53 PM 64.0 °F 53.1 °F 67% 29.98 in 10.0 mi South 9.2 mph - N/A   Clear
5:53 PM 59.0 °F 52.0 °F 78% 29.97 in 8.0 mi SSE 9.2 mph - N/A   Clear
6:53 PM 54.0 °F 51.1 °F 90% 29.98 in 6.0 mi South 6.9 mph - N/A   Clear
7:53 PM 53.1 °F 51.1 °F 93% 29.98 in 5.0 mi South 8.1 mph - N/A   Clear
8:53 PM 52.0 °F 51.1 °F 97% 29.99 in 5.0 mi South 6.9 mph - N/A   Clear
9:25 PM 51.8 °F 50.0 °F 94% 29.99 in 4.0 mi SSE 6.9 mph - N/A   Scattered Clouds
9:53 PM 52.0 °F 50.0 °F 93% 29.98 in 4.0 mi SSE 9.2 mph - N/A   Mostly Cloudy
10:53 PM 51.1 °F 50.0 °F 96% 29.96 in 4.0 mi South 9.2 mph - N/A   Mostly Cloudy
11:45 PM 51.8 °F 48.2 °F 88% 29.96 in 4.0 mi South 6.9 mph - N/A   Scattered Clouds
11:53 PM 51.1 °F 48.9 °F 92% 29.96 in 4.0 mi South 6.9 mph - N/A   Partly Cloudy